| time (UTC) | temp F | wind direction | speed knots | gust knots | rain 1hr in | rain 24hr in | rain mn in | humidity % | barometer mb |
| 20260906124003 | 55 | 34 | 0.9 | 2.6 | 0.00 | 0.00 | 0.00 | 94 | 1021.3 |
| 20260906123007 | 55 | 35 | 0.9 | 2.6 | 0.00 | 0.00 | 0.00 | 94 | 1021.2 |
| 20260906122017 | 55 | 28 | 0.9 | 3.5 | 0.00 | 0.00 | 0.00 | 94 | 1021.0 |
| 20260906121003 | 54 | 40 | 0.9 | 3.5 | 0.00 | 0.00 | 0.00 | 93 | 1020.9 |
| 20260906120005 | 54 | 45 | 0.9 | 2.6 | 0.00 | 0.00 | 0.00 | 93 | 1020.8 |
| 20260906115008 | 54 | 45 | 1.7 | 2.6 | 0.00 | 0.00 | 0.00 | 93 | 1020.7 |
| 20260906114013 | 55 | 21 | 1.7 | 2.6 | 0.00 | 0.00 | 0.00 | 93 | 1020.7 |
| 20260906113003 | 54 | 21 | 0.9 | 2.6 | 0.00 | 0.00 | 0.00 | 93 | 1020.5 |
| 20260906111959 | 55 | 21 | 1.7 | 3.5 | 0.00 | 0.00 | 0.00 | 93 | 1020.6 |
| 20260906111016 | 54 | 25 | 1.7 | 3.5 | 0.00 | 0.00 | 0.00 | 93 | 1020.5 |
| 20260906110010 | 54 | 30 | 1.7 | 3.5 | 0.00 | 0.00 | 0.00 | 93 | 1020.4 |
| 20260906105004 | 54 | 44 | 0.9 | 3.5 | 0.00 | 0.00 | 0.00 | 92 | 1020.3 |
| 20260906104005 | 55 | 42 | 0.9 | 4.3 | 0.00 | 0.00 | 0.00 | 92 | 1020.4 |
| 20260906103025 | 55 | 42 | 0.9 | 4.3 | 0.00 | 0.00 | 0.00 | 92 | 1020.3 |
| 20260906102024 | 55 | 37 | 1.7 | 3.5 | 0.00 | 0.00 | 0.00 | 92 | 1020.3 |
| 20260906100958 | 55 | 38 | 0.9 | 2.6 | 0.00 | 0.00 | 0.00 | 92 | 1020.3 |
| 20260906100017 | 55 | 38 | 0.9 | 2.6 | 0.00 | 0.00 | 0.00 | 92 | 1020.1 |
| 20260906095015 | 55 | 38 | 0.9 | 2.6 | 0.00 | 0.00 | 0.00 | 91 | 1020.1 |
| 20260906094001 | 55 | 38 | 0.9 | 2.6 | 0.00 | 0.00 | 0.00 | 92 | 1020.0 |
| 20260906093007 | 56 | 60 | 0.9 | 2.6 | 0.00 | 0.00 | 0.00 | 92 | 1020.2 |
| 20260906092003 | 56 | 60 | 0.9 | 2.6 | 0.00 | 0.00 | 0.00 | 91 | 1020.2 |
| 20260906091016 | 56 | 65 | 0.9 | 3.5 | 0.00 | 0.00 | 0.00 | 91 | 1020.1 |
| 20260906090007 | 56 | 64 | 1.7 | 4.3 | 0.00 | 0.00 | 0.00 | 91 | 1019.9 |
| 20260906085007 | 56 | 69 | 1.7 | 3.5 | 0.00 | 0.00 | 0.00 | 90 | 1019.7 |
| 20260906084004 | 56 | 66 | 1.7 | 2.6 | 0.00 | 0.00 | 0.00 | 90 | 1019.6 |
| 20260906083006 | 57 | 74 | 0.9 | 2.6 | 0.00 | 0.00 | 0.00 | 90 | 1019.6 |
| 20260906082013 | 57 | 74 | 0.9 | 2.6 | 0.00 | 0.00 | 0.00 | 90 | 1019.7 |
| 20260906081011 | 57 | 74 | 1.7 | 3.5 | 0.00 | 0.00 | 0.00 | 90 | 1019.6 |
| 20260906080012 | 57 | 67 | 0.9 | 3.5 | 0.00 | 0.00 | 0.00 | 90 | 1019.5 |
| 20260906075000 | 57 | 75 | 1.7 | 4.3 | 0.00 | 0.00 | 0.00 | 90 | 1019.5 |
| 20260906074003 | 58 | 66 | 1.7 | 2.6 | 0.00 | 0.00 | 0.00 | 90 | 1019.2 |
| 20260906073002 | 58 | 65 | 0.9 | 3.5 | 0.00 | 0.00 | 0.00 | 89 | 1019.2 |
| 20260906072005 | 58 | 69 | 1.7 | 2.6 | 0.00 | 0.00 | 0.00 | 89 | 1019.1 |
| 20260906071012 | 58 | 69 | 0.9 | 3.5 | 0.00 | 0.00 | 0.00 | 89 | 1019.4 |
| 20260906065958 | 59 | 51 | 0.9 | 3.5 | 0.00 | 0.00 | 0.00 | 89 | 1019.4 |
| 20260906064958 | 59 | 74 | 1.7 | 3.5 | 0.00 | 0.00 | 0.00 | 89 | 1019.3 |
| 20260906064005 | 59 | 74 | 1.7 | 4.3 | 0.00 | 0.00 | 0.00 | 88 | 1019.4 |
| 20260906063010 | 60 | 82 | 0.9 | 2.6 | 0.00 | 0.00 | 0.00 | 88 | 1019.4 |
| 20260906062016 | 60 | 85 | 1.7 | 2.6 | 0.00 | 0.00 | 0.00 | 88 | 1019.4 |
| 20260906061001 | 60 | 86 | 0.9 | 2.6 | 0.00 | 0.00 | 0.00 | 88 | 1019.5 |
| 20260906060041 | 61 | 86 | 0.9 | 2.6 | 0.00 | 0.00 | 0.00 | 88 | 1019.2 |
| 20260906055022 | 61 | 88 | 0.9 | 3.5 | 0.00 | 0.00 | 0.00 | 88 | 1019.2 |
| 20260906054003 | 61 | 90 | 1.7 | 3.5 | 0.00 | 0.00 | 0.00 | 88 | 1019.4 |
| 20260906053006 | 62 | 96 | 1.7 | 5.2 | 0.00 | 0.00 | 0.00 | 88 | 1019.2 |
| 20260906052001 | 62 | 94 | 3.5 | 5.2 | 0.00 | 0.00 | 0.00 | 88 | 1019.1 |
| 20260906051000 | 62 | 96 | 3.5 | 6.1 | 0.00 | 0.00 | 0.00 | 87 | 1019.0 |
| 20260906050001 | 63 | 92 | 1.7 | 6.1 | 0.00 | 0.00 | 0.00 | 88 | 1019.1 |
| 20260906045009 | 63 | 81 | 4.3 | 8.7 | 0.00 | 0.00 | 0.00 | 88 | 1018.9 |
| 20260906044027 | 63 | 75 | 2.6 | 7.8 | 0.00 | 0.00 | 0.00 | 88 | 1018.8 |
| 20260906043001 | 64 | 91 | 4.3 | 8.7 | 0.00 | 0.00 | 0.00 | 88 | 1018.9 |
| 20260906042001 | 64 | 107 | 2.6 | 7.0 | 0.00 | 0.00 | 0.00 | 88 | 1018.8 |
| 20260906041002 | 65 | 65 | 2.6 | 8.7 | 0.00 | 0.00 | 0.00 | 88 | 1018.6 |
| 20260906040003 | 65 | 86 | 2.6 | 7.8 | 0.00 | 0.00 | 0.00 | 88 | 1018.5 |
| 20260906035003 | 66 | 91 | 3.5 | 7.8 | 0.00 | 0.00 | 0.00 | 88 | 1018.3 |
| 20260906034009 | 66 | 89 | 2.6 | 7.0 | 0.00 | 0.00 | 0.00 | 88 | 1018.3 |
| 20260906033007 | 67 | 90 | 2.6 | 7.0 | 0.00 | 0.00 | 0.00 | 87 | 1018.4 |
| 20260906031959 | 67 | 86 | 1.7 | 5.2 | 0.00 | 0.00 | 0.00 | 86 | 1018.4 |
| 20260906031001 | 68 | 64 | 2.6 | 5.2 | 0.00 | 0.00 | 0.00 | 85 | 1018.3 |
| 20260906030024 | 68 | 89 | 1.7 | 3.5 | 0.00 | 0.00 | 0.00 | 85 | 1018.2 |
| 20260906024959 | 68 | 81 | 1.7 | 5.2 | 0.00 | 0.00 | 0.00 | 84 | 1018.1 |
| 20260906024018 | 69 | 71 | 0.9 | 4.3 | 0.00 | 0.00 | 0.00 | 85 | 1018.0 |
| 20260906023000 | 69 | 86 | 1.7 | 6.1 | 0.00 | 0.00 | 0.00 | 85 | 1018.0 |
| 20260906022002 | 69 | 86 | 2.6 | 7.0 | 0.00 | 0.00 | 0.00 | 85 | 1017.9 |
| 20260906021003 | 69 | 74 | 1.7 | 6.1 | 0.00 | 0.00 | 0.00 | 84 | 1017.8 |
| 20260906020005 | 69 | 80 | 2.6 | 5.2 | 0.00 | 0.00 | 0.00 | 85 | 1017.8 |
| 20260906015027 | 70 | 67 | 2.6 | 5.2 | 0.00 | 0.00 | 0.00 | 86 | 1017.7 |
| 20260906014003 | 70 | 93 | 2.6 | 6.1 | 0.00 | 0.00 | 0.00 | 87 | 1017.5 |
| 20260906013001 | 70 | 61 | 1.7 | 5.2 | 0.00 | 0.00 | 0.00 | 88 | 1017.5 |
| 20260906012016 | 70 | 50 | 1.7 | 6.1 | 0.00 | 0.00 | 0.00 | 87 | 1017.5 |
| 20260906011009 | 70 | 56 | 1.7 | 5.2 | 0.00 | 0.00 | 0.00 | 86 | 1017.4 |
| 20260906010019 | 71 | 81 | 1.7 | 4.3 | 0.00 | 0.00 | 0.00 | 86 | 1017.3 |
| 20260906005004 | 71 | 80 | 1.7 | 7.0 | 0.00 | 0.00 | 0.00 | 86 | 1017.2 |
| 20260906004007 | 71 | 48 | 1.7 | 5.2 | 0.00 | 0.00 | 0.00 | 85 | 1017.0 |
| 20260906003018 | 72 | 20 | 0.9 | 3.5 | 0.00 | 0.00 | 0.00 | 84 | 1016.8 |
| 20260906002003 | 72 | 17 | 0.9 | 2.6 | 0.00 | 0.00 | 0.00 | 84 | 1016.8 |
| 20260906001010 | 73 | 17 | 1.7 | 3.5 | 0.00 | 0.00 | 0.00 | 83 | 1017.0 |
| 20260906000005 | 73 | 19 | 1.7 | 3.5 | 0.00 | 0.00 | 0.00 | 83 | 1016.7 |
| 20260905235005 | 74 | 36 | 0.9 | 2.6 | 0.00 | 0.00 | 0.00 | 82 | 1016.6 |
| 20260905234012 | 74 | 40 | 0.9 | 3.5 | 0.00 | 0.00 | 0.00 | 82 | 1016.7 |
| 20260905233016 | 74 | 49 | 0.0 | 3.5 | 0.00 | 0.00 | 0.00 | 82 | 1016.7 |
| 20260905232026 | 74 | 71 | 1.7 | 3.5 | 0.00 | 0.00 | 0.00 | 82 | 1016.9 |
| 20260905231015 | 75 | 34 | 0.9 | 3.5 | 0.00 | 0.00 | 0.00 | 81 | 1016.6 |
| 20260905230031 | 75 | 36 | 1.7 | 6.1 | 0.00 | 0.00 | 0.00 | 81 | 1016.7 |
| 20260905225003 | 75 | 39 | 1.7 | 5.2 | 0.00 | 0.00 | 0.00 | 80 | 1016.6 |
| 20260905224002 | 76 | 80 | 3.5 | 8.7 | 0.00 | 0.00 | 0.00 | 80 | 1016.5 |
| 20260905223010 | 76 | 101 | 1.7 | 9.6 | 0.00 | 0.00 | 0.00 | 80 | 1016.4 |
| 20260905222005 | 76 | 34 | 1.7 | 8.7 | 0.00 | 0.00 | 0.00 | 81 | 1016.2 |
| 20260905221002 | 76 | 94 | 5.2 | 9.6 | 0.00 | 0.00 | 0.00 | 80 | 1016.1 |
| 20260905220005 | 76 | 71 | 3.5 | 7.8 | 0.00 | 0.00 | 0.00 | 83 | 1016.1 |
| 20260905215006 | 75 | 126 | 4.3 | 9.6 | 0.00 | 0.00 | 0.00 | 86 | 1016.2 |
| 20260905214007 | 74 | 33 | 2.6 | 9.6 | 0.00 | 0.00 | 0.00 | 86 | 1016.3 |
| 20260905213015 | 74 | 46 | 1.7 | 7.8 | 0.00 | 0.00 | 0.00 | 88 | 1016.3 |
| 20260905212006 | 73 | 94 | 1.7 | 7.0 | 0.00 | 0.00 | 0.00 | 88 | 1016.2 |
| 20260905211026 | 73 | 99 | 3.5 | 7.8 | 0.00 | 0.00 | 0.00 | 88 | 1016.0 |
| 20260905210003 | 73 | 85 | 2.6 | 6.1 | 0.00 | 0.00 | 0.00 | 88 | 1016.2 |
| 20260905205004 | 72 | 94 | 1.7 | 5.2 | 0.00 | 0.00 | 0.00 | 88 | 1016.0 |
| 20260905204027 | 72 | 20 | 0.9 | 8.7 | 0.00 | 0.00 | 0.00 | 88 | 1016.1 |
| 20260905203009 | 72 | 34 | 3.5 | 7.0 | 0.00 | 0.00 | 0.00 | 88 | 1016.3 |
| 20260905202016 | 72 | 44 | 2.6 | 11.3 | 0.00 | 0.00 | 0.00 | 88 | 1016.3 |
| 20260905201002 | 72 | 86 | 4.3 | 9.6 | 0.00 | 0.00 | 0.00 | 88 | 1016.6 |
| 20260905200014 | 72 | 90 | 3.5 | 10.4 | 0.00 | 0.00 | 0.00 | 87 | 1016.6 |
| 20260905195024 | 72 | 67 | 4.3 | 11.3 | 0.00 | 0.00 | 0.00 | 88 | 1016.6 |
| 20260905194013 | 72 | 87 | 5.2 | 11.3 | 0.00 | 0.00 | 0.00 | 89 | 1016.5 |
| 20260905193013 | 71 | 69 | 2.6 | 9.6 | 0.00 | 0.00 | 0.00 | 89 | 1016.7 |
| 20260905191024 | 71 | 105 | 3.5 | 11.3 | 0.00 | 0.00 | 0.00 | 89 | 1016.7 |
| 20260905190009 | 71 | 88 | 4.3 | 7.8 | 0.00 | 0.00 | 0.00 | 89 | 1016.7 |
| 20260905185006 | 71 | 57 | 3.5 | 7.8 | 0.00 | 0.00 | 0.00 | 89 | 1016.7 |
| 20260905184009 | 71 | 106 | 2.6 | 6.1 | 0.00 | 0.00 | 0.00 | 89 | 1016.7 |
| 20260905183002 | 71 | 31 | 1.7 | 6.1 | 0.00 | 0.00 | 0.00 | 88 | 1016.6 |
| 20260905182002 | 71 | 32 | 1.7 | 7.8 | 0.00 | 0.00 | 0.00 | 88 | 1016.6 |
| 20260905181007 | 71 | 126 | 1.7 | 6.1 | 0.00 | 0.00 | 0.00 | 89 | 1016.7 |
| 20260905180006 | 71 | 51 | 1.7 | 7.0 | 0.00 | 0.00 | 0.00 | 89 | 1016.7 |
| 20260905175013 | 71 | 104 | 3.5 | 7.8 | 0.00 | 0.00 | 0.00 | 89 | 1016.8 |
| 20260905174001 | 71 | 92 | 4.3 | 9.6 | 0.00 | 0.00 | 0.00 | 89 | 1016.7 |
| 20260905173007 | 71 | 51 | 2.6 | 8.7 | 0.00 | 0.00 | 0.00 | 90 | 1016.8 |
| 20260905172009 | 71 | 93 | 3.5 | 7.8 | 0.00 | 0.00 | 0.00 | 91 | 1016.7 |
| 20260905171019 | 70 | 60 | 1.7 | 5.2 | 0.00 | 0.00 | 0.00 | 91 | 1016.8 |
| 20260905170014 | 70 | 18 | 2.6 | 7.0 | 0.00 | 0.00 | 0.00 | 92 | 1016.8 |
| 20260905165003 | 70 | 91 | 2.6 | 5.2 | 0.00 | 0.02 | 0.00 | 91 | 1016.5 |
| 20260905164014 | 70 | 55 | 2.6 | 4.3 | 0.00 | 0.02 | 0.00 | 92 | 1016.6 |
| 20260905163001 | 70 | 48 | 1.7 | 7.0 | 0.00 | 0.02 | 0.00 | 92 | 1016.9 |
| 20260905162002 | 69 | 49 | 1.7 | 6.1 | 0.00 | 0.02 | 0.00 | 92 | 1016.7 |
| 20260905161002 | 69 | 87 | 0.9 | 7.0 | 0.00 | 0.02 | 0.00 | 93 | 1016.8 |
| 20260905160008 | 69 | 65 | 2.6 | 5.2 | 0.00 | 0.02 | 0.00 | 93 | 1016.7 |
| 20260905155005 | 69 | 35 | 1.7 | 7.8 | 0.00 | 0.06 | 0.00 | 93 | 1016.5 |
| 20260905154003 | 69 | 97 | 4.3 | 7.8 | 0.00 | 0.06 | 0.00 | 93 | 1016.7 |
| 20260905153048 | 69 | 82 | 1.7 | 6.1 | 0.00 | 0.06 | 0.00 | 93 | 1016.4 |
| 20260905152019 | 69 | 28 | 2.6 | 5.2 | 0.00 | 0.06 | 0.00 | 93 | 1016.4 |
| 20260905151010 | 69 | 69 | 2.6 | 5.2 | 0.00 | 0.06 | 0.00 | 92 | 1016.2 |
| 20260905150021 | 69 | 27 | 2.6 | 7.0 | 0.00 | 0.06 | 0.00 | 93 | 1016.5 |
| 20260905145001 | 69 | 97 | 2.6 | 7.8 | 0.00 | 0.26 | 0.00 | 93 | 1016.3 |
| 20260905144002 | 69 | 92 | 2.6 | 8.7 | 0.00 | 0.26 | 0.00 | 93 | 1016.2 |
| 20260905143002 | 69 | 86 | 2.6 | 7.8 | 0.00 | 0.26 | 0.00 | 93 | 1016.1 |
| 20260905142007 | 69 | 97 | 4.3 | 7.8 | 0.00 | 0.26 | 0.00 | 93 | 1016.2 |
| 20260905141005 | 69 | 98 | 2.6 | 7.8 | 0.00 | 0.26 | 0.00 | 93 | 1016.1 |
| 20260905140003 | 69 | 114 | 2.6 | 7.8 | 0.00 | 0.26 | 0.00 | 93 | 1016.1 |
| 20260905135013 | 69 | 36 | 3.5 | 7.8 | 0.00 | 0.60 | 0.00 | 94 | 1015.9 |
| 20260905134002 | 69 | 78 | 3.5 | 7.8 | 0.00 | 0.60 | 0.00 | 94 | 1016.0 |
| 20260905133011 | 69 | 120 | 3.5 | 8.7 | 0.00 | 0.60 | 0.00 | 94 | 1016.0 |
| 20260905132004 | 69 | 58 | 2.6 | 6.1 | 0.00 | 0.60 | 0.00 | 94 | 1015.8 |
| 20260905131012 | 70 | 53 | 3.5 | 7.8 | 0.00 | 0.60 | 0.00 | 94 | 1015.8 |
| 20260905130007 | 70 | 61 | 4.3 | 7.8 | 0.00 | 0.60 | 0.00 | 95 | 1015.7 |
| 20260905125008 | 70 | 107 | 2.6 | 7.8 | 0.00 | 0.66 | 0.00 | 95 | 1015.7 |